Regional Weather Roundup
Issued by NWS

Home | Current Version | Previous Version | Text Only | Print | Product List | Glossary Off
Versions: 1 2 3 4 5 6 7 8 9 10 11 12 13 14 15 16 17 18 19 20 21 22 23 24 25 26 27 28 29 30 31 32 33 34 35 36 37 38 39 40 41 42 43 44 45 46 47 48 49 50

000
ASUS43 KFSD 230810
RWRSD

WEATHER ROUNDUP FOR SOUTH DAKOTA
NATIONAL WEATHER SERVICE SIOUX FALLS SD
300 AM CDT SUN JUL 23 2017

NOTE: "FAIR" INDICATES FEW OR NO CLOUDS BELOW 12,000 FEET WITH NO
SIGNIFICANT WEATHER AND/OR OBSTRUCTIONS TO VISIBILITY.


SDZ001>005-009-010-012>017-230900-
NORTHWEST AND NORTH CENTRAL SOUTH DAKOTA

CITY           SKY/WX    TMP DP  RH WIND       PRES   REMARKS
BUFFALO          N/A     64  47  53 W5        30.05R
FAITH            N/A     63  47  55 NE6       30.07S
MOBRIDGE       CLEAR     61  56  83 CALM      30.01S
$$

SDZ012>016-024>037-041>051-057-063-072>074-230900-
SOUTHWEST AND SOUTH CENTRAL SOUTH DAKOTA

CITY           SKY/WX    TMP DP  RH WIND       PRES   REMARKS
RAPID CTY ARPT CLEAR     62  44  51 N8        30.12S
PIERRE         CLEAR     64  50  60 NE7       30.01R
CUSTER         CLEAR     61  35  37 E10       30.25F
ELLSWORTH AFB  CLEAR     66  44  44 CALM      30.11F
PHILIP         CLEAR     60  45  57 N5        30.05S
PINE RIDGE     CLEAR     60  56  86 NE6       30.09F
SPEARFISH      FAIR      59  41  51 CALM      30.16F
WINNER         FAIR      69  51  52 NE7       30.01S
$$

SDZ004>011-016>023-039-040-230900-
NORTHEAST SOUTH DAKOTA

CITY           SKY/WX    TMP DP  RH WIND       PRES   REMARKS
ABERDEEN       CLEAR     62  58  86 NW5       29.97F
WATERTOWN      CLEAR     61  58  90 W3        29.96R
BROOKINGS      CLEAR     64  59  83 CALM      29.96S
SISSETON         N/A     62  59  90 NW7       29.93S
$$

SDZ017-020-022-023-036>040-048>070-230900-
SOUTHEAST SOUTH DAKOTA

CITY           SKY/WX    TMP DP  RH WIND       PRES   REMARKS
SIOUX FALLS    CLEAR     67  62  84 NW9       29.93F
HURON          CLEAR     62  60  93 NW5       29.97S
CHAMBERLAIN    CLEAR     72  54  51 N7        29.99S
MITCHELL       CLEAR     66  58  75 N7        29.96S
YANKTON        CLEAR     72  66  81 SW6       29.94S
$$

ABBREVIATIONS USED IN REMARKS
   TC - TEMPERATURE IN CELSIUS
  WCI - WIND CHILL INDEX
   HX - HEAT INDEX
  VSB - VISIBILITY




USA.gov is the U.S. government's official web portal to all federal, state and local government web resources and services.